Regional Weather Roundup
Issued by NWS

Home | Current Version | Previous Version | Text Only | Print | Product List | Glossary On
Versions: 1 2 3 4 5 6 7 8 9 10 11 12 13 14 15 16 17 18 19 20 21 22 23 24 25 26 27 28 29 30 31 32 33 34 35 36 37 38 39 40 41 42 43 44 45 46 47 48 49 50
000
ASUS44 KFWD 260215
RWRTX
NORTH TEXAS HOURLY WEATHER ROUNDUP
NATIONAL WEATHER SERVICE FORT WORTH TX
900 PM CDT SUN SEP 25 2016

NOTE: "FAIR" INDICATES FEW OR NO CLOUDS BELOW 12,000 FEET WITH NO
SIGNIFICANT WEATHER AND/OR OBSTRUCTIONS TO VISIBILITY.

TXZ118-119-260300-
DALLAS/FORT WORTH METROPLEX

CITY           SKY/WX    TMP DP  RH WIND       PRES   REMARKS
DFW AIRPORT    CLOUDY    77  72  84 N10       30.06R
DALLAS LOVE    CLOUDY    77  72  84 N5        30.07R
FTW MEACHAM    LGT RAIN  75  69  81 N14       30.07R
DAL-EXECUTIVE  CLOUDY    76  74  93 CALM      30.07R
FTW-ALLIANCE   CLOUDY    73  69  87 N13       30.08R
FTW-NAS-JRB    CLOUDY    76  69  79 N13       30.08R
FTW-SPINKS     CLOUDY    75  72  89 N7        30.09R
ARLINGTON      CLOUDY    76  72  87 N8        30.07R
GRAND PRAIRIE  MOCLDY    76  75  99 N8        30.08R
ADDISON        MOCLDY    75  73  94 N8        30.07R
LANCASTER      MOCLDY    75  72  91 CALM      30.07R
$$

TXZ091>094-102>105-117-120-121-131>134-260300-
NORTH CENTRAL TEXAS

CITY           SKY/WX    TMP DP  RH WIND       PRES   REMARKS
SHRMAN/DENISON CLOUDY    73  71  95 N12       30.10R
GAINESVILLE      N/A     69  66  89 N10       30.13R
BOWIE          CLOUDY    67  64  90 N12       30.14R
BRIDGEPORT     CLOUDY    69  67  93 N6        30.13R
DECATUR        CLOUDY    69  68  96 N10G18    30.12R
DENTON         CLOUDY    72  69  90 N10       30.08S
MCKINNEY       MOCLDY    73  71  93 N6        30.07R
GREENVILLE     CLOUDY    73  72  94 N5        30.07R
ROCKWALL       CLOUDY    73  73 100 N9        30.06R
TERRELL        CLOUDY    74  71  91 N3        30.07R
WAXAHACHIE     CLOUDY    73  73 100 CALM      30.08R
CLEBURNE       CLOUDY    75  75 100 N9        30.09R
GRANBURY       CLOUDY    75  70  84 N5        30.09R
$$

TXZ083>090-098>101-113>116-127>130-139>142-154-155-260300-
WESTERN NORTH TEXAS

CITY           SKY/WX    TMP DP  RH WIND       PRES   REMARKS
WICHITA FALLS  CLOUDY    64  56  75 N15       30.15R
WF-KICKAPOO    PTCLDY    66  56  71 N16       30.17R
VERNON         CLOUDY    64  54  70 N6        30.21R
ABILENE        CLOUDY    62  62 100 N14       30.17R FOG
ABILENE-DYESS  CLOUDY    62  59  91 N14       30.16R
CISCO          CLOUDY    66  66 100 N13G21    30.13R
BRECKENRIDGE   CLOUDY    69  65  88 N10       30.13R
GRAHAM         CLOUDY    65  64  94 N10G18    30.13R
MINERAL WELLS  CLOUDY    71  67  87 N13       30.09R
STEPHENVILLE   CLOUDY    72  68  88 NE6       30.11S
COMANCHE       CLOUDY    70  70 100 N7        30.09R
BROWNWOOD      CLOUDY    72  68  88 N7        30.11R
COLEMAN        CLOUDY    68  65  88 N15       30.13R
$$

TXZ143>147-156>162-174-175-260300-
CENTRAL TEXAS

CITY           SKY/WX    TMP DP  RH WIND       PRES   REMARKS
WACO           CLOUDY    74  72  93 NE3       30.06R
WACO-MCGREGOR  CLOUDY    73  73 100 NE5       30.07R
HILLSBORO      CLOUDY    73  72  96 E5        30.06R
CORSICANA      CLOUDY    75  73  93 CALM      30.06R
MEXIA          CLOUDY    71  70  97 CALM      30.04S
HEARNE         LGT RAIN  72  72  99 NW5       30.01F
CAMERON        LGT RAIN  73  72  96 CALM      30.02F
TEMPLE         CLOUDY    73  72  94 E6        30.06R
KILLEEN        RAIN      70  68  94 CALM      30.05R FOG
KILLEEN-SKYLRK RAIN      71  70  96 W8        30.06R
FORT HOOD      LGT RAIN  70  68  94 W5        30.04R FOG
GATESVILLE     LGT RAIN  73  73 100 E5        30.08S
HAMILTON       RAIN      71  71 100 E6        30.08R
LAMPASAS       RAIN      71  69  95 E5        30.05R
$$

TXZ095>097-106>112-122>126-135>138-148>153-164>167-260300-
EAST TEXAS

CITY           SKY/WX    TMP DP  RH WIND       PRES   REMARKS
PARIS          CLOUDY    75  70  83 N15       30.05R
SULPHUR SPRNGS CLOUDY    76  71  84 W5        30.08R
MOUNT PLEASANT CLOUDY    78  71  77 SW3       30.05R
GILMER         CLOUDY    74  69  83 SW5       30.06F
MINEOLA        CLOUDY    73  72  94 CALM      30.07R
TYLER          LGT RAIN  72  71  97 NE5       30.07R
LONGVIEW       CLOUDY    72  70  93 NW7       30.03F
MARSHALL       CLOUDY    75  69  80 W8        30.05F
ATHENS         LGT RAIN  70  70 100 CALM      30.05R
PALESTINE      RAIN      71  71 100 N5        30.05F
JACKSONVILLE   LGT RAIN  71  71 100 N7        30.07S
HENDERSON      RAIN      71  71 100 CALM      30.05F
CENTER         MOCLDY    75  73  92 NW3       30.04R
NACOGDOCHES    CLOUDY    72  72 100 N3        30.02S
LUFKIN         CLOUDY    73  72  96 N6        30.02R
$$

SUPPLEMENTAL OBSERVATIONS (CENTRAL)

CITY           SKY/WX    TMP DP  RH WIND       PRES   REMARKS
DENISON DAM      N/A     72  66  83 N12         N/A
CADDO GRASSLND   N/A     73  68  83 N3          N/A
PAT MAYSE LAKE   N/A     75  72  88 NW12        N/A
GREENVILLE       N/A     75  70  83 N9          N/A
CEDAR HILL       N/A     73  72  94 NE2         N/A
LAKE LIMESTONE   N/A     72  70  94 NW3         N/A
MCGREGOR         N/A     73  72  94 E2          N/A
$$

SUPPLEMENTAL OBSERVATIONS (WEST)

CITY           SKY/WX    TMP DP  RH WIND       PRES   REMARKS
MILLERS CREEK    N/A     61  59  94 N7          N/A
LBJ GRASSLAND    N/A     70  66  88 CALM        N/A
COMANCHE         N/A     72  66  83 N7G16       N/A
HAMBY            N/A    N/A N/A N/A N12         N/A
IVIE RESERVOIR   N/A     70  66  88 NW14        N/A
COLORADO BEND    N/A     72  68  88 SE7         N/A
$$

SUPPLEMENTAL OBSERVATIONS (EAST)

CITY           SKY/WX    TMP DP  RH WIND       PRES   REMARKS
CLARKSVILLE      N/A     79  72  78 NW7         N/A
TEXARKANA        N/A     72  70  94 CALM        N/A
LINDEN           N/A     75  70  83 S3          N/A
CADDO LAKE       N/A     75  66  73 W3          N/A
GILMER           N/A     75  68  78 SW6G20      N/A
HENDERSON        N/A     72  70  94 NW3         N/A
LUFKIN           N/A     73  72  94 MISG        N/A
S SABINE NF      N/A     73  70  88 CALM        N/A
$$

SUPPLEMENTAL OBSERVATIONS ARE A COLLECTION OF AUTOMATED INSTRUMENTS
THAT ARE MAINTAINED BY A VARIETY OF FEDERAL AND STATE AGENCIES.
CERTAIN ELEMENTS...SUCH AS HUMIDITY VALUES AND SUSTAINED WIND
SPEEDS...MAY BE APPROXIMATED.





USA.gov is the U.S. government's official web portal to all federal, state and local government web resources and services.